• în România
  • Lista ţărilor
  • Pe 7 zile
  • Temperatura apei
  • Hartă satelitară
  • Meteo pe hartă
  • Widget-uri
  • user-avatar
    Intrare

    Meteo pe oră la Neuquén

    Astăzi, 28 Mai, Duminică

    Timp Temperatura Precipitaţii Vânt Presiune Umiditate
    00:00 +5°C° 0 mm 3 m/s 740 mmHg 81%
    01:00 +5°C° 0 mm 3 m/s 739 mmHg 84%
    02:00 +5°C° 0 mm 2 m/s 739 mmHg 85%
    03:00 +5°C° 0 mm 2 m/s 738 mmHg 87%
    04:00 +5°C° 0 mm 2 m/s 738 mmHg 89%
    05:00 +4°C° 0 mm 2 m/s 738 mmHg 89%
    06:00 +5°C° 0 mm 1 m/s 738 mmHg 90%
    07:00 +5°C° 0 mm 1 m/s 738 mmHg 91%
    08:00 +7°C° 0 mm 1 m/s 738 mmHg 82%
    09:00 +9°C° 0 mm 1 m/s 739 mmHg 72%
    10:00 +10°C° 0 mm 2 m/s 739 mmHg 63%
    11:00 +12°C° 0 mm 1 m/s 738 mmHg 58%
    12:00 +13°C° 0 mm 1 m/s 738 mmHg 53%
    13:00 +14°C° 0 mm 1 m/s 738 mmHg 47%
    14:00 +13°C° 0 mm 1 m/s 737 mmHg 50%
    15:00 +12°C° 0 mm 1 m/s 737 mmHg 53%
    16:00 +12°C° 0 mm 1 m/s 737 mmHg 56%
    17:00 +11°C° 0 mm 1 m/s 737 mmHg 60%
    18:00 +10°C° 0 mm 1 m/s 738 mmHg 64%
    19:00 +9°C° 0 mm 1 m/s 738 mmHg 69%
    20:00 +8°C° 0 mm 1 m/s 738 mmHg 72%
    21:00 +8°C° 0 mm 1 m/s 738 mmHg 75%
    22:00 +8°C° 0 mm 1 m/s 739 mmHg 78%
    23:00 +7°C° 0 mm 1 m/s 739 mmHg 79%

    Mâine, 29 Mai, Luni

    Timp Temperatura Precipitaţii Vânt Presiune Umiditate
    00:00 +7°C° 0 mm 1 m/s 739 mmHg 81%
    01:00 +7°C° 0 mm 1 m/s 739 mmHg 82%
    02:00 +7°C° 0 mm 1 m/s 739 mmHg 83%
    03:00 +6°C° 0 mm 1 m/s 739 mmHg 83%
    04:00 +6°C° 0 mm 1 m/s 739 mmHg 84%
    05:00 +6°C° 0 mm 1 m/s 739 mmHg 84%
    06:00 +5°C° 0 mm 2 m/s 740 mmHg 84%
    07:00 +5°C° 0 mm 2 m/s 740 mmHg 83%
    08:00 +7°C° 0 mm 2 m/s 741 mmHg 76%
    09:00 +9°C° 0 mm 3 m/s 741 mmHg 68%
    10:00 +11°C° 0 mm 3 m/s 742 mmHg 60%
    11:00 +11°C° 0 mm 3 m/s 741 mmHg 56%
    12:00 +12°C° 0 mm 3 m/s 741 mmHg 53%
    13:00 +13°C° 0 mm 3 m/s 740 mmHg 50%
    14:00 +12°C° 0 mm 3 m/s 740 mmHg 53%
    15:00 +12°C° 0 mm 3 m/s 740 mmHg 56%
    16:00 +12°C° 0 mm 2 m/s 739 mmHg 59%
    17:00 +10°C° 0 mm 2 m/s 740 mmHg 62%
    18:00 +9°C° 0 mm 3 m/s 741 mmHg 66%
    19:00 +8°C° 0 mm 3 m/s 741 mmHg 70%
    20:00 +8°C° 0 mm 3 m/s 741 mmHg 72%
    21:00 +8°C° 0 mm 3 m/s 741 mmHg 74%
    22:00 +7°C° 0 mm 3 m/s 741 mmHg 77%
    23:00 +7°C° 0 mm 3 m/s 741 mmHg 79%

    Poimâine, 30 Mai, Marţi

    Timp Temperatura Precipitaţii Vânt Presiune Umiditate
    00:00 +5°C° 0 mm 3 m/s 741 mmHg 80%
    01:00 +5°C° 0 mm 3 m/s 740 mmHg 82%
    02:00 +6°C° 0 mm 2 m/s 740 mmHg 83%
    03:00 +6°C° 0 mm 2 m/s 740 mmHg 84%
    04:00 +5°C° 0 mm 2 m/s 739 mmHg 85%
    05:00 +5°C° 0 mm 2 m/s 739 mmHg 85%
    06:00 +5°C° 0 mm 2 m/s 739 mmHg 86%
    07:00 +5°C° 0 mm 2 m/s 740 mmHg 86%
    08:00 +7°C° 0 mm 2 m/s 740 mmHg 78%
    09:00 +9°C° 0 mm 2 m/s 740 mmHg 69%
    10:00 +12°C° 0 mm 2 m/s 740 mmHg 60%
    11:00 +13°C° 0 mm 2 m/s 740 mmHg 54%
    12:00 +13°C° 0 mm 3 m/s 739 mmHg 49%
    13:00 +16°C° 0 mm 3 m/s 739 mmHg 44%
    14:00 +15°C° 0 mm 2 m/s 738 mmHg 47%
    15:00 +14°C° 0 mm 2 m/s 738 mmHg 50%
    16:00 +12°C° 0 mm 1 m/s 738 mmHg 53%
    17:00 +12°C° 0 mm 1 m/s 738 mmHg 55%
    18:00 +10°C° 0 mm 2 m/s 739 mmHg 58%
    19:00 +9°C° 0 mm 2 m/s 739 mmHg 60%
    20:00 +10°C° 0 mm 1 m/s 739 mmHg 59%
    21:00 +10°C° 0 mm 1 m/s 739 mmHg 59%
    22:00 +10°C° 0 mm 1 m/s 740 mmHg 58%
    23:00 +10°C° 0 mm 1 m/s 739 mmHg 58%

    31 Mai, Miercuri

    Timp Temperatura Precipitaţii Vânt Presiune Umiditate
    00:00 +10°C° 0 mm 1 m/s 739 mmHg 58%
    01:00 +9°C° 0 mm 1 m/s 739 mmHg 58%
    02:00 +9°C° 0 mm 1 m/s 739 mmHg 59%
    03:00 +9°C° 0 mm 1 m/s 739 mmHg 60%
    04:00 +8°C° 0 mm 1 m/s 739 mmHg 62%
    05:00 +8°C° 0 mm 1 m/s 739 mmHg 61%
    06:00 +8°C° 0 mm 1 m/s 739 mmHg 61%
    07:00 +7°C° 0 mm 1 m/s 739 mmHg 60%
    08:00 +10°C° 0 mm 1 m/s 740 mmHg 52%
    09:00 +12°C° 0 mm 1 m/s 740 mmHg 44%
    10:00 +14°C° 0 mm 1 m/s 740 mmHg 37%
    11:00 +15°C° 0 mm 1 m/s 739 mmHg 35%
    12:00 +16°C° 0 mm 1 m/s 738 mmHg 33%
    13:00 +18°C° 0 mm 1 m/s 738 mmHg 31%
    14:00 +15°C° 0 mm 1 m/s 737 mmHg 34%
    15:00 +14°C° 0 mm 1 m/s 737 mmHg 37%
    16:00 +13°C° 0 mm 1 m/s 736 mmHg 40%
    17:00 +12°C° 0 mm 2 m/s 737 mmHg 45%
    18:00 +12°C° 0 mm 2 m/s 737 mmHg 49%
    19:00 +10°C° 0 mm 2 m/s 737 mmHg 54%
    20:00 +9°C° 0 mm 2 m/s 737 mmHg 58%
    21:00 +9°C° 0 mm 2 m/s 736 mmHg 62%
    22:00 +8°C° 0 mm 2 m/s 736 mmHg 65%
    23:00 +8°C° 0 mm 2 m/s 736 mmHg 69%

    1 Iunie, Joi

    Timp Temperatura Precipitaţii Vânt Presiune Umiditate
    00:00 +8°C° 0 mm 2 m/s 735 mmHg 72%
    01:00 +7°C° 0 mm 2 m/s 735 mmHg 75%
    02:00 +7°C° 0 mm 2 m/s 735 mmHg 74%
    03:00 +8°C° 0 mm 2 m/s 735 mmHg 73%
    04:00 +8°C° 0 mm 3 m/s 735 mmHg 72%
    05:00 +8°C° 0,1 mm 3 m/s 735 mmHg 71%
    06:00 +8°C° 0,1 mm 3 m/s 736 mmHg 71%
    07:00 +8°C° 0,1 mm 3 m/s 736 mmHg 71%
    08:00 +10°C° 0 mm 4 m/s 736 mmHg 62%
    09:00 +10°C° 0 mm 5 m/s 736 mmHg 53%
    10:00 +12°C° 0 mm 7 m/s 736 mmHg 45%
    11:00 +14°C° 0 mm 7 m/s 736 mmHg 42%
    12:00 +15°C° 0 mm 7 m/s 735 mmHg 39%
    13:00 +15°C° 0 mm 7 m/s 735 mmHg 37%
    14:00 +14°C° 0 mm 6 m/s 735 mmHg 39%
    15:00 +13°C° 0 mm 4 m/s 735 mmHg 42%
    16:00 +12°C° 0 mm 3 m/s 735 mmHg 45%
    17:00 +11°C° 0 mm 3 m/s 735 mmHg 48%
    18:00 +10°C° 0 mm 3 m/s 736 mmHg 51%
    19:00 +9°C° 0 mm 3 m/s 736 mmHg 55%
    20:00 +9°C° 0 mm 3 m/s 736 mmHg 56%
    21:00 +8°C° 0 mm 3 m/s 736 mmHg 58%
    22:00 +8°C° 0 mm 2 m/s 736 mmHg 60%
    23:00 +8°C° 0 mm 2 m/s 736 mmHg 61%

    2 Iunie, Vineri

    Timp Temperatura Precipitaţii Vânt Presiune Umiditate
    00:00 +7°C° 0 mm 2 m/s 736 mmHg 62%
    01:00 +7°C° 0 mm 3 m/s 736 mmHg 64%
    02:00 +7°C° 0 mm 2 m/s 736 mmHg 65%
    03:00 +6°C° 0 mm 2 m/s 736 mmHg 66%
    04:00 +6°C° 0 mm 2 m/s 736 mmHg 67%
    05:00 +6°C° 0 mm 2 m/s 735 mmHg 67%
    06:00 +5°C° 0 mm 2 m/s 735 mmHg 67%
    07:00 +6°C° 0 mm 1 m/s 735 mmHg 68%
    08:00 +7°C° 0 mm 2 m/s 735 mmHg 60%
    09:00 +9°C° 0 mm 2 m/s 735 mmHg 52%
    10:00 +12°C° 0 mm 2 m/s 735 mmHg 45%
    11:00 +12°C° 0 mm 3 m/s 734 mmHg 44%
    12:00 +13°C° 0 mm 3 m/s 733 mmHg 42%
    13:00 +14°C° 0 mm 4 m/s 732 mmHg 41%
    14:00 +13°C° 0 mm 3 m/s 732 mmHg 44%
    15:00 +12°C° 0 mm 3 m/s 732 mmHg 46%
    16:00 +13°C° 0 mm 2 m/s 731 mmHg 49%
    17:00 +12°C° 0 mm 2 m/s 731 mmHg 49%
    18:00 +11°C° 0 mm 3 m/s 732 mmHg 49%
    19:00 +10°C° 0 mm 3 m/s 732 mmHg 50%
    20:00 +10°C° 0 mm 4 m/s 732 mmHg 49%
    21:00 +9°C° 0 mm 5 m/s 733 mmHg 48%
    22:00 +9°C° 0 mm 5 m/s 733 mmHg 47%
    23:00 +8°C° 0 mm 6 m/s 733 mmHg 47%
    Arată mai mult